Theta_e
313 313 314 314 315 315 315 315 316 316 316 317 318 317 320 323 331 332 335 334 334 328 330 339 341 340 339 338 337 338 337 336 337 334 334 335 331 332 332 328 328 330 327
309 310 311 311 312 314 314 314 314 317 316 315 315 315 315 317 327 332 333 335 335 337 338 338 337 333 329 337 335 335 335 337 337 328 335 333 333 331 331 331 328 329 331
307 307 309 310 310 311 311 313 314 315 317 318 316 314 314 318 326 329 330 332 335 334 335 334 333 330 330 327 333 335 334 335 333 336 334 333 332 332 327 328 326 328 330
305 304 305 306 307 308 309 310 310 313 316 317 318 315 314 316 324 327 329 328 331 332 331 330 330 327 327 326 328 335 336 335 336 336 335 333 334 329 330 331 330 331 331
302 303 304 304 304 305 306 307 309 310 312 315 316 315 314 316 326 327 328 327 329 330 330 328 326 323 323 327 330 331 330 332 335 335 334 333 330 331 331 331 329 328 328
299 300 301 301 302 304 304 305 306 310 311 314 316 315 317 323 325 326 327 328 330 329 328 327 325 325 324 322 328 330 331 329 330 333 331 329 328 328 326 319 320 323 325
298 299 300 300 301 302 303 305 305 306 310 312 315 316 318 324 326 326 326 325 325 325 326 326 324 325 323 329 330 330 329 331 331 330 328 323 318 315 317 318 322 324 325
299 299 299 299 300 302 302 303 303 305 307 313 312 316 317 322 323 323 323 323 322 321 320 322 325 328 328 330 330 329 329 328 324 313 312 315 319 320 319 321 324 324 328
300 299 299 299 299 301 303 303 305 306 307 309 312 314 317 319 321 322 324 324 324 323 327 328 329 327 329 329 329 326 320 316 313 315 317 323 324 322 321 320 322 327 329
301 301 301 301 300 300 301 303 305 305 307 310 312 313 315 316 318 320 321 324 323 321 323 327 327 330 328 325 322 315 310 309 309 310 312 315 316 318 319 314 314 321 330
302 302 301 301 301 300 300 301 304 305 308 308 310 313 315 316 318 318 319 322 321 321 325 328 326 324 320 317 314 311 313 313 312 311 309 309 310 311 313 313 328 332 334
302 302 302 301 301 301 300 302 303 305 306 309 309 313 315 316 319 318 319 321 320 323 326 325 323 321 318 315 313 314 314 314 314 313 312 310 310 310 313 328 333 331 331
302 301 303 302 301 301 301 301 303 307 308 310 311 314 316 316 318 318 321 321 323 326 326 322 319 318 315 315 316 315 315 314 314 314 312 310 310 312 321 332 333 331 329
302 301 301 302 301 301 301 300 304 307 310 311 313 314 316 315 318 320 322 324 326 325 324 324 321 316 316 317 317 316 315 314 315 317 316 315 314 318 326 332 332 331 329
303 301 300 301 300 300 300 303 304 307 311 314 314 315 315 316 315 321 324 325 324 323 325 321 317 318 319 318 318 316 314 315 317 320 320 320 321 321 317 322 332 330 328
304 303 302 301 301 301 301 302 304 306 308 311 314 316 315 314 316 318 324 324 323 323 323 318 320 320 319 318 317 314 314 316 317 318 319 321 321 323 320 324 332 330 329
306 304 304 302 302 303 301 302 304 305 308 311 313 315 315 314 315 319 316 321 322 321 319 321 320 320 319 318 316 314 315 316 317 318 319 320 320 322 323 320 328 331 331
307 305 305 304 305 303 303 305 303 305 307 309 311 314 316 316 315 317 319 315 313 315 318 317 316 316 316 317 315 315 316 315 315 313 312 315 320 323 324 322 320 329 331
309 307 306 305 304 305 304 306 307 310 310 310 311 315 316 317 317 316 316 320 319 319 316 317 318 318 317 318 317 316 318 317 315 314 312 312 318 323 324 323 322 324 331
309 309 309 308 306 304 305 305 307 309 309 311 312 314 314 317 318 317 316 318 318 317 317 316 316 319 317 317 317 317 318 317 316 313 312 314 317 324 324 321 321 322 328
309 310 310 309 308 306 305 306 305 306 308 309 310 310 312 314 314 317 317 316 316 317 316 316 317 319 317 317 317 317 317 316 316 314 315 316 318 322 323 321 321 320 321
307 308 309 309 309 307 307 306 305 305 306 307 308 309 310 311 312 313 314 316 316 316 316 316 316 317 317 318 317 317 317 316 315 314 313 315 317 319 322 322 321 319 320
303 305 307 308 308 310 309 307 307 307 306 306 306 307 309 310 311 311 312 312 313 315 316 316 317 318 317 317 317 316 316 315 315 314 314 314 318 320 323 322 321 319 324
300 300 301 303 305 307 309 309 309 309 309 309 307 306 306 308 310 312 311 312 313 313 313 314 314 314 314 315 315 315 315 314 314 314 314 314 316 320 323 322 320 318 325
298 298 297 298 299 301 305 306 308 309 308 309 310 310 307 306 306 308 311 312 311 311 311 311 311 312 313 313 313 313 312 311 311 311 311 311 317 321 323 321 321 319 321
294 296 296 296 295 297 298 300 303 306 308 308 308 310 310 310 309 308 308 309 310 311 310 311 313 312 312 311 311 312 312 313 314 313 313 316 319 320 320 320 320 319 323
Wind_Speed
28 28 29 28 28 28 29 32 34 38 39 39 42 42 44 40 39 41 46 49 46 59 53 51 46 51 54 59 49 44 47 41 32 29 22 17 13 11 11 11 15 12 11
46 46 45 41 38 33 33 34 31 31 37 39 40 41 42 43 39 40 44 48 45 47 44 39 28 19 17 41 39 44 47 40 34 26 23 17 13 10 9 11 13 12 11
48 47 44 43 45 44 40 32 27 30 31 32 34 37 40 41 41 41 40 45 44 41 39 40 36 38 34 47 30 44 45 39 27 23 20 16 13 10 10 7 8 10 11
39 41 41 40 40 45 46 45 39 29 28 30 32 35 40 42 41 39 39 40 48 50 48 37 32 31 41 42 53 49 43 31 24 23 19 18 14 13 14 10 8 7 7
44 42 40 44 43 37 41 46 48 39 31 25 27 33 40 42 33 33 37 37 40 44 43 48 43 41 32 18 27 42 34 29 24 22 21 16 14 16 14 10 9 7 9
42 44 45 43 39 38 42 48 48 52 37 27 24 29 33 27 27 28 31 33 35 42 46 48 42 28 28 22 29 29 30 26 25 23 20 18 16 15 16 14 11 10 12
38 39 38 39 38 37 32 30 30 37 40 28 19 25 25 24 21 23 26 32 33 33 36 38 32 32 35 26 25 27 24 24 20 20 21 19 16 15 13 14 12 11 10
39 38 35 33 33 32 35 34 29 26 29 23 24 21 22 20 24 21 16 11 25 25 28 30 28 29 28 28 30 27 25 22 19 17 17 14 13 12 12 14 12 12 11
38 37 34 31 29 30 27 28 24 23 22 29 18 19 21 18 25 27 20 22 32 26 27 26 23 27 30 32 30 27 21 18 16 15 15 16 14 10 12 11 10 13 14
36 36 32 31 28 28 26 26 22 20 20 23 17 18 18 19 26 27 28 32 34 35 36 28 27 31 35 32 26 23 19 16 13 14 15 14 12 13 15 11 13 16 15
36 37 35 33 30 25 25 27 21 19 19 21 20 20 20 24 26 26 32 36 40 42 36 34 39 37 32 25 22 21 16 13 11 7 5 6 10 12 12 12 11 14 16
38 40 37 32 26 21 18 18 17 12 16 14 21 20 20 20 27 26 36 37 36 37 40 41 39 34 29 25 23 17 12 7 4 1 1 4 4 7 8 7 7 6 9
37 37 37 27 19 17 16 13 15 8 11 14 17 13 13 10 21 29 34 41 36 41 41 40 35 30 28 23 19 12 6 1 4 5 5 4 3 8 8 7 8 8 11
35 32 26 17 13 12 13 11 11 9 5 10 9 8 10 12 20 23 36 41 34 44 41 34 30 28 23 20 16 8 2 4 4 4 5 2 4 5 4 5 8 9 11
31 28 23 17 13 12 12 5 10 8 4 5 2 5 13 16 18 25 41 44 46 38 37 34 30 27 24 19 15 7 4 1 2 3 5 6 2 4 2 7 8 10 9
31 27 25 19 13 13 8 9 13 14 2 6 1 6 11 13 5 22 44 43 36 34 34 32 29 27 25 21 14 7 5 3 1 4 4 4 5 4 5 4 7 10 10
26 28 23 17 16 16 9 8 11 14 4 4 2 3 2 8 5 11 30 33 33 34 33 30 29 27 22 18 12 12 8 5 2 4 5 6 7 8 5 6 5 10 12
25 24 24 18 20 13 12 6 8 7 7 8 4 3 2 6 9 4 15 16 22 28 31 27 21 18 17 18 19 19 16 8 5 7 9 8 6 8 8 8 6 8 12
23 21 20 18 17 17 12 12 6 9 6 5 3 7 7 10 11 15 14 26 21 19 24 24 18 19 24 19 18 18 15 12 10 12 12 9 6 10 10 9 9 10 10
20 25 16 20 15 12 11 8 8 5 6 9 9 11 11 13 18 14 15 31 28 27 21 25 25 21 19 15 11 14 16 14 12 14 14 10 6 7 10 11 10 9 12
20 20 17 17 18 12 8 3 3 2 8 9 6 6 12 12 12 20 21 26 30 39 27 33 29 26 23 19 19 19 19 17 14 15 12 9 6 9 14 14 12 14 12
20 20 19 18 17 11 9 6 4 3 9 11 15 11 7 14 15 13 15 18 25 32 30 33 36 33 29 26 24 23 22 21 15 13 12 14 11 14 17 17 15 18 14
23 21 19 19 17 17 16 6 6 5 3 5 11 21 23 17 18 18 17 18 17 16 30 24 25 24 23 23 23 24 23 23 18 17 20 18 15 15 16 19 17 19 14
31 27 24 21 20 19 15 14 14 5 8 9 9 14 21 27 29 22 20 16 18 19 19 23 24 21 20 20 21 22 23 26 28 31 35 35 23 16 19 19 16 17 14
34 33 31 28 25 22 18 16 12 13 9 4 9 12 13 18 24 31 32 26 21 18 18 18 21 25 28 30 31 32 33 33 33 33 28 22 21 17 19 18 19 17 17
34 33 32 31 30 27 23 21 17 13 11 11 7 4 13 17 17 24 27 40 40 33 28 25 26 28 29 29 28 25 22 19 19 20 18 18 19 21 22 22 21 20 20
Wind_Direction
290 286 284 285 279 270 271 273 276 281 283 282 283 286 284 288 272 265 257 258 248 234 244 246 248 248 246 245 245 238 237 238 233 242 247 250 243 240 240 269 286 286 287
295 292 287 282 282 281 281 274 272 276 287 287 285 290 289 284 274 260 255 253 248 240 238 238 240 239 295 259 236 240 236 235 232 241 241 233 229 237 259 272 277 281 290
291 290 288 283 279 277 275 280 283 280 278 289 295 291 291 285 272 264 253 248 242 240 237 239 245 264 272 283 247 234 235 232 230 232 230 223 212 239 242 268 273 266 277
300 299 294 289 286 278 276 278 280 287 287 282 291 301 292 291 274 264 251 249 249 246 245 248 239 256 249 280 248 238 230 223 215 219 221 220 231 230 241 255 261 252 291
296 293 286 286 286 284 280 275 276 280 286 289 294 300 295 292 266 259 248 244 250 249 247 249 244 253 272 251 207 226 221 216 208 210 217 209 214 223 236 238 256 272 283
301 294 294 294 291 285 282 276 269 265 273 290 293 309 304 281 257 253 242 240 237 238 239 239 244 230 212 188 210 221 217 212 214 204 212 218 221 227 243 252 255 271 281
305 301 296 291 288 288 286 276 270 263 259 277 296 305 297 270 236 217 220 229 230 231 229 228 217 203 197 215 216 215 209 200 206 217 224 230 235 238 245 246 249 257 278
310 308 305 298 286 281 281 279 278 263 258 254 286 290 290 274 227 204 184 189 182 186 181 179 184 196 199 204 203 196 185 193 205 212 218 215 212 217 238 256 266 265 271
316 314 312 306 293 279 279 281 269 258 257 248 284 288 281 280 207 189 202 234 239 223 221 215 201 195 193 185 180 184 193 192 191 206 211 212 218 230 251 254 260 271 274
323 316 315 311 303 287 281 274 267 268 250 243 278 287 274 268 236 222 237 249 217 211 221 217 204 188 175 178 185 179 170 170 170 197 210 219 226 234 246 256 266 265 258
328 322 316 309 303 295 277 266 269 254 251 240 265 289 276 259 236 237 234 232 208 208 213 196 177 176 174 175 176 170 168 158 157 171 190 224 234 235 236 250 254 247 240
335 327 321 307 303 297 285 272 259 259 249 242 253 280 268 270 228 248 229 215 213 216 185 171 171 175 172 174 168 166 167 153 150 162 280 271 252 206 215 230 227 212 188
343 338 332 307 304 300 299 275 253 258 219 242 253 291 271 256 293 242 209 206 206 206 179 167 166 170 172 173 173 169 173 139 345 329 310 270 220 183 203 197 200 187 172
350 351 355 349 325 311 306 286 223 236 237 232 259 292 250 228 314 219 195 188 193 188 171 172 177 177 180 177 177 171 215 325 0 31 45 103 176 180 184 205 216 198 200
350 356 0 1 351 332 323 207 226 220 106 81 222 290 219 209 273 223 211 193 190 181 175 174 175 180 179 179 184 195 241 296 88 64 60 78 96 43 258 227 206 197 205
357 356 3 1 353 349 342 206 204 221 279 68 169 325 215 189 306 163 178 182 181 180 177 174 175 180 179 187 194 224 265 191 95 12 0 341 347 329 3 240 223 210 229
353 0 1 9 3 357 354 224 215 214 231 103 104 316 252 217 143 198 139 158 172 177 178 180 184 185 189 197 220 254 261 213 285 334 320 302 301 267 309 356 269 237 236
7 7 6 4 13 8 355 6 212 217 241 222 327 202 160 155 172 188 190 167 158 162 168 171 181 192 209 227 250 258 237 221 311 315 296 287 309 261 269 328 301 268 249
358 4 2 8 8 12 6 47 145 138 150 201 252 122 163 182 196 198 195 212 203 180 195 197 210 215 223 230 236 235 233 236 296 319 317 297 297 259 262 305 320 267 261
0 9 10 5 7 17 14 7 82 125 152 108 138 142 146 175 190 182 183 193 204 200 213 205 235 225 207 211 232 243 246 254 290 322 323 308 272 262 253 305 313 287 272
7 13 20 15 13 16 46 359 297 152 204 214 146 147 160 183 178 201 202 205 200 206 221 226 229 224 220 225 231 238 248 261 286 312 325 307 296 262 267 290 310 306 279
14 17 22 22 8 17 12 19 44 255 242 233 236 233 216 201 199 199 199 208 220 222 220 226 235 238 237 235 236 241 249 265 274 288 307 322 296 288 262 272 288 313 275
18 17 18 21 22 26 24 19 330 324 302 260 233 235 232 229 218 203 207 208 211 215 220 227 235 232 229 233 235 241 249 262 264 275 289 304 295 283 258 267 283 305 275
27 25 22 21 20 25 27 27 39 353 286 302 287 248 237 230 226 225 211 209 203 204 209 224 233 233 225 227 233 240 250 258 265 274 279 287 267 267 257 260 287 289 271
30 27 28 28 22 20 19 18 19 18 25 293 267 288 272 243 240 234 219 210 222 225 236 244 246 245 244 248 252 257 263 266 269 271 269 245 247 248 249 262 273 283 269
29 30 28 27 25 23 18 11 10 3 359 20 24 291 253 256 257 246 231 231 235 239 250 255 247 251 259 260 259 259 256 250 261 245 231 235 239 240 250 266 279 275 262